[[{"header":{"parameterUnit":"m.s-1","parameterCategory":1,"la1":30.2991,"la2":30.254,"lo1":-89.0895,"lo2":-89.0444,"dy":0.0017,"dx":0.0017,"nx":28,"ny":28,"refTime":"2023-08-27T21:00:00:Z","depth":0,"parameterNumber":2,"parameterNumberName":"U-component_of_WINDS"},"data":[0,0,0,0,0,0,0,0,0,0,0,0,0,0,0,0,0,0,0,0,0,0,0,0,0,0,0,0,0,0,0,0,0,0,0,0,0,0,0,0,0,0,0,0,0,0,0,0,0,0,0,0,0,0,0,0,0,0,-2.3425,-2.3427,0,-2.3569,-2.3571,-2.3573,-2.3642,-2.3642,-2.3642,-2.3642,-2.3792,-2.3796,-2.38,0,0,0,0,0,0,0,0,0,0,0,0,0,-2.3211,-2.3215,-2.3425,-2.3427,-2.3429,-2.3569,-2.3571,-2.3573,-2.3642,-2.3642,-2.3642,-2.3642,-2.3791,-2.3796,-2.38,0,0,0,0,0,0,0,0,0,0,0,0,0,-2.3325,-2.3216,-2.3425,-2.348,-2.3486,-2.3569,-2.3571,-2.3574,-2.3642,-2.3642,-2.3642,-2.3642,-2.3789,-2.3795,-2.3801,-2.384,0,0,-2.382,-2.3822,0,0,0,0,0,0,0,0,-2.3318,-2.3333,-2.347,-2.3476,-2.3484,-2.3587,-2.3551,-2.3663,-2.3642,-2.3583,-2.3642,-2.3642,-2.3724,-2.3736,-2.3763,-2.3847,-2.3854,-2.382,-2.3824,-2.3827,-2.3828,0,0,0,0,0,0,0,-2.331,-2.3327,-2.3482,-2.3472,-2.348,-2.3498,-2.3514,-2.3572,-2.3652,-2.3588,-2.3593,-2.3609,-2.3728,-2.3757,-2.3767,-2.3856,-2.382,-2.3825,-2.3829,-2.3832,-2.3979,-2.3979,0,0,0,0,0,0,-2.3293,-2.332,-2.3478,-2.3487,-2.3399,-2.3502,-2.352,-2.3554,-2.3652,-2.3667,-2.3609,-2.3612,-2.3747,-2.376,-2.3773,-2.3825,-2.3826,-2.3832,-2.3836,-2.3979,-2.3979,-2.3979,0,0,0,0,0,0,-2.3288,-2.3307,-2.3472,-2.3405,-2.3427,-2.3506,-2.3544,-2.3557,-2.3586,-2.3668,-2.3683,-2.3624,-2.3747,-2.3764,-2.3823,-2.3831,-2.3835,-2.384,-2.3978,-2.3979,-2.3979,-2.3929,0,0,0,0,0,0,-2.3282,-2.3304,-2.332,-2.3404,-2.343,-2.3519,-2.3544,-2.356,-2.3596,-2.3601,-2.3686,-2.37,-2.3748,-2.3813,-2.3829,-2.3839,-2.3845,-2.3978,-2.3979,-2.3979,-2.393,-2.3927,-2.3925,0,0,0,0,0,-2.3274,-2.3301,-2.332,-2.3339,-2.3451,-2.3519,-2.3534,-2.3589,-2.3597,-2.3613,-2.3665,-2.3697,-2.3827,-2.3819,-2.3837,-2.3849,-2.3978,-2.3978,-2.3979,-2.3931,-2.3928,-2.3925,0,0,0,0,0,0,-2.3217,-2.3313,-2.3336,-2.339,-2.3446,-2.3531,-2.3553,-2.3584,-2.3639,-2.3641,-2.3707,-2.3726,-2.3778,-2.382,-2.3808,-2.3892,-2.3905,-2.391,-2.3863,-2.3861,-2.3858,-2.3847,-2.385,0,0,0,0,0,-2.321,-2.3256,-2.3339,-2.3379,-2.3405,-2.3474,-2.3506,-2.3543,-2.3603,-2.3628,-2.3684,-2.3742,-2.3796,-2.3831,-2.3885,-2.3936,-2.3955,-2.3953,-2.3951,-2.3948,-2.3952,-2.3981,-2.3981,-2.3981,-2.3981,-2.3981,0,0,-2.3198,-2.3256,-2.3282,-2.3369,-2.3416,-2.3463,-2.3494,-2.3542,-2.3578,-2.3635,-2.3694,-2.3737,-2.3806,-2.3861,-2.3888,-2.3897,-2.3956,-2.3949,-2.3947,-2.3951,-2.3982,-2.3982,-2.3982,-2.3982,-2.3982,-2.3981,0,0,-2.3199,-2.3248,-2.3287,-2.3333,-2.3403,-2.3449,-2.3457,-2.3537,-2.3568,-2.3627,-2.3671,-2.3714,-2.3806,-2.3853,-2.3889,-2.3906,-2.3938,-2.3922,-2.391,-2.3938,-2.3938,-2.3938,-2.3944,-2.3945,-2.3925,-2.3925,-2.3925,0,-2.3176,-2.3247,-2.3303,-2.3349,-2.3386,-2.3438,-2.3478,-2.352,-2.3605,-2.363,-2.3638,-2.3753,-2.3804,-2.387,-2.3874,-2.3901,-2.3914,-2.3913,-2.3933,-2.3934,-2.3935,-2.3941,-2.3944,-2.3922,-2.3923,-2.3923,-2.3923,0,-2.3214,-2.3263,-2.3286,-2.3365,-2.3405,-2.3447,-2.3509,-2.3543,-2.3576,-2.362,-2.3679,-2.3741,-2.3808,-2.3827,-2.386,-2.3897,-2.3901,-2.392,-2.3935,-2.3932,-2.3939,-2.3942,-2.3919,-2.392,-2.3921,-2.3921,0,0,-2.3186,-2.3293,-2.3301,-2.3337,-2.3417,-2.3457,-2.3501,-2.3566,-2.3593,-2.3649,-2.3689,-2.3764,-2.3782,-2.3822,-2.3861,-2.3886,-2.3895,-2.3903,-2.3905,-2.3899,-2.3939,-2.3925,-2.3927,-2.3915,-2.3916,-2.3917,-2.3934,0,-2.3199,-2.328,-2.333,-2.3392,-2.3438,-2.3487,-2.3525,-2.3579,-2.3621,-2.3667,-2.3714,-2.3766,-2.3786,-2.3811,-2.3837,-2.3888,-2.3904,-2.3887,-2.3953,-2.3955,-2.3935,-2.393,-2.3915,-2.3928,-2.3937,-2.3937,-2.3938,0,-2.3226,-2.3279,-2.3344,-2.3418,-2.3439,-2.3473,-2.3535,-2.3578,-2.364,-2.3669,-2.3713,-2.3751,-2.3801,-2.3811,-2.388,-2.3867,-2.3897,-2.3926,-2.3928,-2.3937,-2.3947,-2.394,-2.3934,-2.3936,-2.3943,-2.3942,-2.3942,0,-2.3198,-2.3286,-2.3336,-2.3365,-2.3453,-2.3476,-2.3514,-2.3575,-2.361,-2.3665,-2.3688,-2.3748,-2.3781,-2.3827,-2.3881,-2.3883,-2.3944,-2.3959,-2.397,-2.3969,-2.3982,-2.398,-2.3981,-2.3999,-2.3999,-2.3999,-2.3999,0,-2.3208,-2.3246,-2.3325,-2.3356,-2.34,-2.3457,-2.3499,-2.3541,-2.3595,-2.3635,-2.3682,-2.3719,-2.3787,-2.3833,-2.3875,-2.3925,-2.394,-2.3965,-2.3976,-2.3961,-2.3958,-2.3983,-2.3983,-2.4,-2.4,-2.4,-2.4,0,-2.3185,-2.324,-2.3297,-2.3375,-2.3395,-2.3424,-2.3491,-2.3523,-2.3566,-2.3616,-2.3632,-2.37,-2.3756,-2.3814,-2.389,-2.3919,-2.3968,-2.3983,-2.3946,-2.3953,-2.396,-2.3959,-2.3978,-2.3983,-2.3997,-2.3996,-2.3996,0,-2.3188,-2.3218,-2.3298,-2.3327,-2.3363,-2.3411,-2.3446,-2.3503,-2.3538,-2.361,-2.3633,-2.3692,-2.3742,-2.3829,-2.3886,-2.3944,-2.3961,-2.3964,-2.397,-2.3954,-2.3962,-2.3959,-2.3963,-2.3961,-2.3961,-2.3961,-2.396,0,-2.3187,-2.3212,-2.3261,-2.3318,-2.3358,-2.3407,-2.3457,-2.3479,-2.3546,-2.3583,-2.364,-2.3678,-2.3755,-2.3813,-2.3877,-2.3917,-2.395,-2.3957,-2.3963,-2.3949,-2.3927,-2.3939,-2.394,-2.3957,-2.3957,-2.3958,-2.3958,-2.3958,-2.3179,-2.3207,-2.3267,-2.3319,-2.3362,-2.3407,-2.3441,-2.3488,-2.3535,-2.3601,-2.3632,-2.3689,-2.3749,-2.3839,-2.3878,-2.3923,-2.3933,-2.3941,-2.3943,-2.3945,-2.3941,-2.3918,-2.3935,-2.3935,-2.3935,-2.3936,-2.3936,0,-2.318,-2.3221,-2.3268,-2.3335,-2.3376,-2.3401,-2.3458,-2.3491,-2.354,-2.3592,-2.364,-2.3705,-2.376,-2.3821,-2.3881,-2.3905,-2.3922,-2.3919,-2.3918,-2.3927,-2.3929,-2.3918,-2.3905,-2.3905,-2.3905,-2.3905,-2.3905,-2.3905,-2.3186,-2.3236,-2.3267,-2.3338,-2.3379,-2.3433,-2.3463,-2.3505,-2.3548,-2.3617,-2.3663,-2.3702,-2.3758,-2.3821,-2.3874,-2.389,-2.391,-2.3903,-2.3924,-2.3925,-2.3927,-2.3929,-2.3919,-2.3907,-2.3907,-2.3918,-2.3918,-2.3918]},{"header":{"parameterUnit":"m.s-1","parameterCategory":1,"la1":30.2991,"la2":30.254,"lo1":-89.0895,"lo2":-89.0444,"dy":0.0017,"dx":0.0017,"nx":28,"ny":28,"refTime":"2023-08-27T21:00:00:Z","depth":0,"parameterNumber":3,"parameterNumberName":"V-component_of_WINDS"},"data":[0,0,0,0,0,0,0,0,0,0,0,0,0,0,0,0,0,0,0,0,0,0,0,0,0,0,0,0,0,0,0,0,0,0,0,0,0,0,0,0,0,0,0,0,0,0,0,0,0,0,0,0,0,0,0,0,0,0,6.9775,6.9775,0,6.9775,6.9775,6.9775,6.9699,6.9697,6.9695,6.9693,6.9691,6.9693,6.9695,0,0,0,0,0,0,0,0,0,0,0,0,0,6.9706,6.9708,6.9775,6.9775,6.9775,6.9775,6.9775,6.9775,6.9699,6.9697,6.9694,6.9692,6.9691,6.9693,6.9695,0,0,0,0,0,0,0,0,0,0,0,0,0,6.9724,6.9708,6.9775,6.9737,6.9733,6.9775,6.9775,6.9775,6.97,6.9697,6.9694,6.9691,6.969,6.9693,6.9695,6.9773,0,0,6.9704,6.9705,0,0,0,0,0,0,0,0,6.9723,6.9727,6.9742,6.9739,6.9736,6.9734,6.975,6.9774,6.97,6.9712,6.9693,6.9689,6.9708,6.9709,6.9716,6.9773,6.9773,6.9704,6.9706,6.9707,6.9708,0,0,0,0,0,0,0,6.9722,6.9726,6.9775,6.9743,6.9739,6.9719,6.9719,6.9755,6.9727,6.9711,6.9706,6.9707,6.9705,6.9713,6.9715,6.9773,6.9704,6.9707,6.9708,6.9709,6.9893,6.9896,0,0,0,0,0,0,6.9726,6.9726,6.9775,6.9775,6.9722,6.9723,6.9722,6.9737,6.9726,6.9722,6.9709,6.9703,6.971,6.9712,6.9715,6.9803,6.9707,6.971,6.9711,6.989,6.9894,6.9897,0,0,0,0,0,0,6.9725,6.9731,6.9775,6.9749,6.9753,6.9727,6.9745,6.9739,6.9746,6.9725,6.972,6.9722,6.9708,6.9711,6.9759,6.9802,6.9711,6.9713,6.9886,6.9891,6.9895,6.9982,0,0,0,0,0,0,6.9724,6.9731,6.9761,6.975,6.9755,6.9819,6.9748,6.9741,6.9752,6.9744,6.9736,6.9731,6.9705,6.9755,6.9762,6.9804,6.9715,6.9882,6.9888,6.9894,6.9975,6.9989,7.0001,0,0,0,0,0,6.9721,6.9785,6.9763,6.9769,6.9791,6.9822,6.9824,6.9794,6.9756,6.9784,6.9771,6.9732,6.9797,6.9761,6.9767,6.9811,6.9879,6.9886,6.9893,6.9969,6.9986,7.0001,0,0,0,0,0,0,6.9799,6.9782,6.9758,6.982,6.9823,6.9809,6.9844,6.9813,6.9827,6.9818,6.978,6.9778,6.9832,6.9827,6.9787,6.9886,6.9831,6.984,6.9886,6.9903,6.9915,6.9914,6.9718,0,0,0,0,0,6.9824,6.9852,6.9835,6.9891,6.9895,6.987,6.9882,6.9859,6.986,6.9861,6.9851,6.9853,6.9874,6.9889,6.9907,6.9975,6.9972,7.0009,7.0022,7.0033,7.004,7.0075,7.0091,6.9921,6.9921,6.9921,0,0,6.9875,6.9869,6.9888,6.9907,6.9907,6.9935,6.9871,6.9904,6.9925,6.9866,6.991,6.9903,6.9904,6.9962,6.9987,6.9959,7.0087,7.0042,7.0051,7.0052,7.0084,7.01,7.0114,6.9926,6.9925,6.9924,0,0,6.9981,6.998,7.0026,7.0028,7.0029,7.0013,7.0024,7.0016,7.0009,7.0054,7.001,7.0034,7.0071,7.0073,7.0079,7.0189,7.0153,7.0196,7.0263,7.0297,7.0311,7.0322,7.0359,7.0374,7.0204,7.0204,7.0205,0,7.0043,7.0085,7.0054,7.009,7.0099,7.0049,7.0095,7.0098,7.0105,7.0112,7.0082,7.0128,7.0125,7.0182,7.0209,7.0216,7.0227,7.0195,7.0312,7.0323,7.0333,7.0368,7.0383,7.0209,7.0209,7.0208,7.0208,0,7.016,7.0191,7.0228,7.0236,7.025,7.0291,7.0266,7.0284,7.026,7.0247,7.0293,7.0288,7.0304,7.0317,7.0294,7.0371,7.0354,7.0319,7.0262,7.0355,7.0387,7.04,7.0217,7.0215,7.0213,7.0212,0,0,7.0312,7.0305,7.0319,7.0322,7.0321,7.0343,7.0383,7.04,7.0415,7.0423,7.0453,7.0487,7.0455,7.0461,7.0438,7.0469,7.0555,7.0429,7.0429,7.0451,7.0638,7.0663,7.0679,7.0532,7.0535,7.0537,7.0637,0,7.0413,7.0479,7.0453,7.0521,7.0548,7.0503,7.0537,7.054,7.0529,7.055,7.0538,7.0562,7.0518,7.0522,7.0551,7.0538,7.0591,7.0531,7.0559,7.056,7.0557,7.0696,7.0722,7.0817,7.065,7.0652,7.0654,0,7.0538,7.0552,7.0623,7.0618,7.0628,7.0659,7.0672,7.0694,7.0696,7.0687,7.0696,7.0666,7.0704,7.0651,7.0702,7.0661,7.0672,7.0668,7.0671,7.067,7.061,7.0696,7.0847,7.086,7.0674,7.0672,7.0671,0,7.0639,7.0675,7.0722,7.0727,7.0723,7.0745,7.0745,7.0745,7.0757,7.0769,7.0776,7.0793,7.0801,7.0814,7.079,7.0754,7.0844,7.0789,7.0835,7.0836,7.0853,7.0852,7.1005,7.0865,7.0865,7.0865,7.0864,0,7.0752,7.0797,7.0767,7.0796,7.0845,7.0816,7.0864,7.0859,7.0859,7.0886,7.0848,7.0874,7.0842,7.0864,7.0846,7.089,7.0894,7.0886,7.088,7.0888,7.0889,7.0892,7.0884,7.0868,7.0868,7.0867,7.0866,0,7.0871,7.0853,7.0901,7.0894,7.0894,7.093,7.0923,7.0949,7.0938,7.0971,7.0978,7.0958,7.0983,7.0961,7.0985,7.0972,7.103,7.1016,7.1029,7.1024,7.1071,7.1066,7.1229,7.1248,7.1099,7.11,7.1101,0,7.0943,7.0976,7.0974,7.0989,7.0991,7.1016,7.1029,7.1003,7.1017,7.1024,7.1049,7.107,7.1086,7.1127,7.1115,7.1132,7.1117,7.1173,7.1119,7.1126,7.1115,7.1112,7.1115,7.1183,7.1185,7.1186,7.1187,0,7.1072,7.1062,7.1082,7.1099,7.1116,7.1128,7.1137,7.1152,7.1125,7.1143,7.1168,7.1181,7.1205,7.1227,7.1241,7.1239,7.1209,7.1205,7.1216,7.1223,7.1228,7.1224,7.1056,7.12,7.1199,7.1198,7.1197,7.1197,7.1167,7.1195,7.1198,7.1221,7.1226,7.1236,7.126,7.1252,7.1273,7.1291,7.1275,7.1305,7.1308,7.1324,7.1326,7.1349,7.1325,7.1342,7.1346,7.135,7.1356,7.1227,7.1352,7.1351,7.1351,7.1351,7.135,0,7.1292,7.1293,7.1315,7.133,7.1349,7.1321,7.133,7.1347,7.1374,7.138,7.1397,7.1426,7.1447,7.1438,7.1456,7.1476,7.1463,7.1482,7.1478,7.1478,7.1377,7.1364,7.1492,7.1492,7.1492,7.1492,7.1492,7.1492,7.1359,7.1404,7.1395,7.1442,7.1442,7.1472,7.148,7.1489,7.1493,7.1527,7.1545,7.154,7.1539,7.1558,7.1576,7.1573,7.158,7.1604,7.1596,7.15,7.1486,7.1472,7.146,7.1606,7.1607,7.1695,7.1696,7.1696]}]]